Terminal Aerodrome Forecast
Issued by NWS Raleigh/Durham, NC

Home | Current Version | Previous Version | Text Only | Print | Product List | Glossary On
Versions: 1 2 3 4 5 6 7 8 9 10 11 12 13 14 15 16 17 18 19 20 21 22 23 24 25 26 27 28 29 30 31 32 33 34 35 36 37 38 39 40 41 42 43 44 45 46 47 48 49 50
000
FTUS42 KRAH 031329 AAB
TAFRDU
TAF AMD
KRDU 031329Z 0313/0412 16004KT 5SM BR BKN007 BKN014 OVC080
     FM031400 18005KT P6SM BKN014 BKN080
     FM031600 19006KT P6SM VCSH BKN025 BKN080
      TEMPO 0316/0318 SCT025
     FM031800 18006KT P6SM VCSH SCT035
      TEMPO 0322/0401 VRB15G30KT 2SM TSRA BKN025CB OVC040=

USA.gov is the U.S. government's official web portal to all federal, state and local government web resources and services.